カタログに戻る

FENGYUN 1C DEB

運用中SSO
NORAD 30075·DEBRIS·🇨🇳 China

打ち上げ May 10, 1999 から Taiyuan Satellite Launch Center

Loading…

次のパス (今後24時間)

TLE

最新Source: Space-Track

元期: Sep 14, 2026, 10:24 UTC

1 30075U 99025QC  26257.43372921  .00000066  00000-0  83246-4 0  9992
2 30075  99.3243 315.0385 0091380 152.6388 221.3480 13.92618857999025

AllMySatでFENGYUN 1C DEBをリアルタイム追跡

Download on the App Store